Regional Weather Roundup
Issued by NWS

Home | Current Version | Previous Version | Graphics & Text | Print | Product List | Glossary On
Versions: 1 2 3 4 5 6 7 8 9 10 11 12 13 14 15 16 17 18 19 20 21 22 23 24 25 26 27 28 29 30 31 32 33 34 35 36 37 38 39 40 41 42 43 44 45 46 47 48 49 50
000
ASUS43 KBIS 220620
RWRND

NORTH DAKOTA REGIONAL WEATHER ROUNDUP
NATIONAL WEATHER SERVICE BISMARCK ND
1200 AM CST MON DEC 22 2014

NOTE: "FAIR" INDICATES FEW OR NO CLOUDS BELOW 12,000 FEET WITH NO
SIGNIFICANT WEATHER AND/OR OBSTRUCTIONS TO VISIBILITY.


NDZ001>003-009>011-017-220700-
NORTHWEST NORTH DAKOTA

CITY           SKY/WX    TMP DP  RH WIND       PRES   REMARKS
WILLISTON      CLOUDY    31  29  92 SW3       29.40R
6HR MIN TEMP:  29; 6HR MAX TEMP:  35;

MINOT          CLOUDY    29  27  92 E9        29.44R FOG
MINOT AFB      FRZ DRZL  30  30 100 SE10      29.43F FOG
$$

NDZ018>021-031>035-040>046-220700-
SOUTHWEST NORTH DAKOTA

CITY           SKY/WX    TMP DP  RH WIND       PRES   REMARKS
BISMARCK       CLOUDY    28  28 100 SE7       29.45S FOG
6HR MIN TEMP:  28; 6HR MAX TEMP:  30;

DICKINSON      CLOUDY    37  34  89 W13       29.38R
GARRISON         N/A     29  28  96 SE8       29.42R
6HR MIN TEMP:  26; 6HR MAX TEMP:  34;

HETTINGER ARPT CLOUDY    37  34  89 W12       29.43R
$$

NDZ004>008-012>016-024-026-027-054-220700-
NORTHEAST NORTH DAKOTA

CITY           SKY/WX    TMP DP  RH WIND       PRES   REMARKS
GRAND FORKS    CLOUDY    33  32  96 SE6       29.55F
GRND FRKS AFB  CLOUDY    32  32 100 SE7       29.54F
DEVILS LAKE    CLOUDY    30  25  80 S6        29.49S
$$

NDZ022-023-025-028>030-036>039-047>053-220700-
SOUTHEAST NORTH DAKOTA

CITY           SKY/WX    TMP DP  RH WIND       PRES   REMARKS
FARGO          CLOUDY    37  34  89 SE8       29.54F FOG
6HR MIN TEMP:  35; 6HR MAX TEMP:  37;

JAMESTOWN      CLOUDY    32  31  96 SE7       29.47S FOG
$$



USA.gov is the U.S. government's official web portal to all federal, state and local government web resources and services.